Find Starlink 1276

NORAD ID: 45368 Int'l Des: 2020-019 Owner: SPXS Country: US Constellation: starlink operational
LEOCIRCULARSTARLINK_TYPE

Live Position

Loading 3D Globe...

About Starlink 1276

Description loading...

Upcoming Passes

Passes for default location (London). Set your location on the main map for personalized predictions.

Altitude History

Loading altitude history...

Two-Line Element Set

1 45368U 20019J 26124.14796647 .00024140 00000-0 13645-2 0 9999
2 45368 53.0722 275.6484 0000621 314.5690 45.5251 15.12985586338129
Epoch: May 4, 2026 • Age: 17 hours

Current Status

Altitude 528.3 km
Velocity 7.60 km/s
Sub-Earth Point 24.59°N, 91.08°W
Launch Date Mar 18, 2020
Age 6.1 years
Type internet

Technical Details

Classification Payload
Mass 260.00 kg
Dry Mass 248.00 kg
Total Mass 260.00 kg
Length 0.20 m
Diameter 2.80 m
Span 9.00 m
Shape Box + pan
Manufacturer SPXS
Bus Type Starlink
Phase Status In Orbit
Owner/State SPXS/US

Most Searched